Location: Lamoine Observatory
(44.4551°N, 68.3470°W)
Time: 01:27:33
(UTC-04:00)

Daily predictions for brighter satellites

Satellite Brightness Start Highest point End
(mag) Time Altitude Azimuth Time Altitude Azimuth Time Altitude Azimuth
Terra 4.4 00:05:46 11° WNW 00:05:46 11° WNW 00:06:34 10° WNW
NOSS 3-1 (A) 3.7 00:10:33 65° NNW 00:10:33 65° NNW 00:16:49 10° NE
ATLAS 2AS CENTAUR R/B 3.7 00:13:04 39° E 00:13:04 39° E 00:19:16 10° NE
Cosmos 2369 Rocket 4.1 00:09:26 10° N 00:13:37 21° NE 00:15:10 19° ENE
ATLAS CENTAUR R/B 4.2 00:24:18 13° NE 00:24:18 13° NE 00:24:46 10° NE
Cosmos 2285 Rocket 4.2 00:25:41 70° N 00:25:41 70° N 00:31:24 10° NNE
Cosmos 2074 Rocket 4.2 00:20:57 10° N 00:26:20 66° NNE 00:26:20 66° NNE
SL-16 R/B 2.8 00:33:20 52° NNE 00:33:20 52° NNE 00:37:35 10° NNE
Cosmos 1943 Rocket 4.4 00:36:34 10° N 00:40:34 19° NE 00:43:37 13° E
CZ-4C R/B 3.7 00:39:48 10° NW 00:44:55 37° W 00:44:55 37° W
Cosmos 2333 Rocket 3.9 00:46:51 24° WNW 00:48:00 25° NW 00:52:46 10° N
ATLAS 3B R/B 2.8 00:44:01 10° NNW 00:50:51 64° NE 00:51:14 62° ENE
Cosmos 1607 4.1 00:49:57 10° NNW 00:55:54 69° NNE 00:55:54 69° NNE
Cosmos 2237 Rocket 3.7 00:56:36 27° WNW 00:57:12 28° NW 01:02:04 10° N
Cosmos 2278 Rocket 4.4 00:54:48 10° WNW 00:56:09 14° WNW 00:56:09 14° WNW
USA 238 DEB 4.2 00:55:51 10° NNW 01:02:50 59° NE 01:04:41 46° E
USA 238 4.2 00:55:57 10° NNW 01:02:56 58° NE 01:04:50 45° E
Meteor 2-4 Rocket 4.3 01:10:14 49° NE 01:10:14 49° NE 01:14:18 10° NNE
Cosmos 2181 Rocket 4.5 01:13:33 53° E 01:13:33 53° E 01:19:40 10° NNE
CZ-2C R/B 4.1 01:13:10 10° N 01:17:28 28° WNW 01:17:28 28° WNW
USA 215 3.2 01:15:14 10° NE 01:21:27 78° E 01:21:27 78° E
Cosmos 1943 3.9 01:30:53 46° ENE 01:30:53 46° ENE 01:35:23 10° NE
Nadezhda 1 Rocket 4.4 01:32:48 50° WNW 01:32:48 50° WNW 01:38:22 10° N
SL-8 Rocket 4.1 01:30:30 10° N 01:36:38 64° E 01:36:47 64° E
Cosmos 1603 4.1 01:50:08 57° NW 01:50:08 57° NW 01:55:25 10° NNE
USA 267 3.4 01:48:28 10° ESE 01:54:58 73° NE 02:01:30 10° NW
Cosmos 1295 Rocket 4.5 01:49:00 10° NNW 01:54:36 68° WNW 01:54:36 68° WNW
Cosmos 2341 Rocket 4.2 01:50:54 10° NNW 01:56:23 55° WNW 01:56:23 55° WNW
Cosmos 2369 Rocket 2.6 01:52:38 10° NNW 01:56:56 53° NW 01:56:56 53° NW
NPP 4.2 01:54:18 10° NNE 01:59:31 47° E 01:59:31 47° E
ATLAS CENTAUR R/B 3.6 02:00:34 20° NNW 02:00:34 20° NNW 02:03:05 10° N
NOSS 3-4 (A) 4.3 02:01:44 37° ESE 02:02:02 37° ESE 02:07:52 10° NE
NOSS 3-4 (C) 4.3 02:01:49 36° ESE 02:02:08 36° ESE 02:07:58 10° NE
ATLAS 2AS CENTAUR R/B 3.4 02:00:28 44° W 02:02:43 56° NW 02:10:44 10° NNE
Resurs 1-4 Rocket 3.5 02:11:10 10° NE 02:15:41 28° E 02:16:57 25° ESE
NOSS 3-2 (A) 4.0 02:09:03 10° NW 02:16:32 82° NE 02:24:40 10° SE
Cosmos 773 Rocket 4.1 02:16:55 71° E 02:16:55 71° E 02:21:51 10° NNE
SL-16 R/B 4.2 02:15:11 15° WNW 02:16:51 17° NW 02:20:33 10° N
CZ-2D R/B 3.5 02:14:13 10° NE 02:18:51 30° E 02:20:13 26° ESE
Cosmos 2228 4.0 02:16:37 10° NNW 02:19:37 42° NNW 02:19:37 42° NNW
Cosmos 1959 Rocket 4.4 02:16:51 10° NNW 02:23:04 70° W 02:23:23 68° WSW
SL-08 R/B 4.3 02:16:54 10° N 02:23:14 78° W 02:23:47 72° SW
Helios 1A Rocket 4.5 02:21:00 10° N 02:23:26 29° NNW 02:23:26 29° NNW
Cosmos 1943 Rocket 2.0 02:19:21 10° NNW 02:25:04 84° WSW 02:25:05 84° WSW
BREEZE M DEB (TANK) 4.2 02:07:48 10° WNW 02:28:19 60° SW 02:30:17 46° S
Cosmos 292 Rocket 3.8 02:29:11 75° N 02:29:11 75° N 02:33:41 10° NNE
Cosmos 1066 Rocket 4.0 02:28:32 71° SE 02:28:53 75° E 02:34:14 10° NNE
Cosmos 1809 Rocket 4.3 02:26:35 10° NNW 02:32:41 70° W 02:33:11 67° SW
Cosmos 44 Rocket 3.6 02:31:22 10° NW 02:35:03 54° NW 02:35:03 54° NW
AQUA 3.7 02:32:26 10° NNE 02:37:13 83° E 02:37:13 83° E
ATLAS 3B R/B 4.0 02:35:29 10° NW 02:38:26 22° WNW 02:38:26 22° WNW
Cosmos 1812 Rocket 3.6 02:41:22 10° N 02:45:47 72° E 02:45:53 72° E
ADEOS 4.1 02:41:14 10° NNE 02:46:20 51° E 02:47:46 40° SSE
Meteor 1-4 Rocket 3.2 02:45:34 10° N 02:48:54 57° NE 02:48:54 57° NE
SL-16 R/B 2.5 02:49:25 34° SSE 02:52:22 86° ENE 02:58:34 10° NNW
CBERS-1 3.9 02:47:24 10° N 02:52:29 66° WNW 02:52:55 63° WSW
Aureole 1 Rocket 3.4 02:52:29 62° S 02:53:21 79° ESE 02:57:50 10° NNE
IRS-1C 4.0 02:49:10 10° NNE 02:54:32 82° WNW 02:55:27 62° SSW
Cosmos 1680 Rocket 3.5 02:53:52 60° S 02:54:48 77° ESE 03:00:05 10° NNE
Cosmos 1821 Rocket 4.2 02:51:37 10° N 02:57:41 65° E 03:02:04 20° SSE
USA 161 4.3 02:57:08 14° ESE 02:58:25 18° ENE 03:00:31 10° NNE
Meteor 1-21 4.3 02:59:39 41° SSE 03:01:35 71° E 03:07:09 10° NNE
IRS-1D 3.6 02:57:20 10° NNE 03:02:32 75° ESE 03:04:06 46° S
USA 215 4.1 02:58:26 10° NE 03:04:31 42° NNW 03:08:48 19° W
Cosmos 2239 Rocket 4.5 03:03:11 10° N 03:09:22 81° E 03:13:32 22° SSE
Meteor 2-8 Rocket 4.4 03:07:07 36° S 03:09:45 83° E 03:15:56 10° N
Cosmos 1656 Rocket 3.4 03:06:13 10° NNW 03:11:39 78° WSW 03:14:45 26° SSE
GEOS 3 Rocket 3.6 03:06:38 10° NE 03:11:56 80° NW 03:13:30 48° SW
Cosmos 1943 4.4 03:12:41 25° WNW 03:14:14 28° NW 03:19:05 10° N
Cosmos 1535 Rocket 4.5 03:08:37 10° N 03:14:55 84° E 03:19:26 19° S
Cosmos 1626 Rocket 4.1 03:15:42 42° WNW 03:15:42 42° WNW 03:19:52 10° N
Lacrosse 5 rocket 3.4 03:14:44 19° SSE 03:16:11 22° ESE 03:19:45 10° ENE
UNK 3.7 03:16:45 56° SW 03:17:11 59° W 03:21:44 10° NNW
ARIANE 5 R/B 2.5 03:12:35 10° NNE 03:17:51 87° WNW 03:19:42 42° SSW
COSMOS 2455 2.7 03:13:21 10° NW 03:19:23 74° WSW 03:25:21 10° SSE
SL-27 R/B 3.2 03:19:08 43° SE 03:19:39 46° ESE 03:23:07 10° NNE
Genesis I 3.0 03:19:31 10° NW 03:23:29 80° WSW 03:25:23 29° SSE
Cosmos 1934 Rocket 4.1 03:17:20 10° N 03:23:39 80° E 03:29:55 10° S
Cosmos 1371 Rocket 4.0 03:18:40 10° NNW 03:24:05 88° ENE 03:29:27 10° SSE
NOSS 3-2 (C) 4.0 03:17:47 10° NW 03:25:06 55° WSW 03:32:58 10° SSE
ADEOS II 4.4 03:21:38 10° NE 03:25:29 20° E 03:29:17 10° SE
Cosmos 1825 Rocket 3.6 03:24:03 41° S 03:25:33 80° E 03:29:58 10° N
CZ-2D R/B 4.0 03:23:36 10° NNE 03:27:38 53° E 03:29:27 29° SSE
Okean O Rocket 4.1 03:25:18 10° NE 03:28:25 18° E 03:31:30 10° SE
RESURS DK-1 2.2 03:28:13 56° SSW 03:29:03 87° WNW 03:33:12 10° NNE
Cosmos 44 4.5 03:29:20 10° NW 03:31:14 22° WNW 03:31:14 22° WNW
Cosmos 1805 3.1 03:30:03 10° NNW 03:33:59 68° W 03:34:50 50° SSW
Cosmos 1271 Rocket 2.5 03:34:29 10° NNW 03:38:15 80° W 03:39:35 38° S
USA 267 3.7 03:32:22 10° SSE 03:38:17 36° SW 03:44:15 10° WNW
CENTAUR R/B 3.2 03:35:32 10° NW 03:43:24 83° NE 03:51:51 10° SE
COBE Rocket 4.0 03:40:15 10° N 03:45:18 61° WNW 03:47:37 30° SW
Cosmos 192 4.4 03:44:35 34° SW 03:46:37 61° WNW 03:51:31 10° NNE
Cosmos 1842 3.8 03:47:25 36° W 03:47:59 38° WNW 03:51:39 10° N
ADEOS Rocket 3.2 03:42:37 10° N 03:48:22 55° WNW 03:52:01 25° SW
Tiangong 1 0.8 03:50:41 61° S 03:50:41 61° S 03:53:26 10° E
NOSS 3-4 (A) 4.0 03:49:10 24° WSW 03:52:46 49° NW 03:59:07 10° NNE
NOSS 3-4 (C) 4.0 03:49:15 24° WSW 03:52:52 49° NW 03:59:15 10° NNE
NOSS 2-2 (D) 4.0 03:51:47 25° S 03:53:57 54° ESE 03:58:28 10° NE
Resurs 1-4 Rocket 2.7 03:50:44 10° N 03:55:37 40° WNW 03:58:03 25° WSW
CZ-2D R/B 2.8 03:54:05 10° N 03:58:59 38° WNW 04:01:33 24° WSW
Cosmos 2098 Rocket 2.2 03:56:17 10° N 03:59:24 74° E 04:01:42 15° SSE
Cosmos 1544 4.0 03:56:56 10° NNW 04:00:09 28° W 04:00:19 28° W
Abrixas 3.1 03:59:32 31° WNW 04:00:28 45° NNW 04:03:12 10° ENE
COSMOS 2406 3.5 03:57:45 25° SW 04:01:01 55° WNW 04:06:41 10° NNE
Cosmos 2082 Rocket 4.1 03:56:43 10° SSE 04:01:22 26° ESE 04:06:01 10° NE
MOZ.5/SAFIR/RUBIN 5/SL-8 3.9 03:59:03 16° S 04:02:33 51° W 04:07:08 10° NNW
CZ-4B R/B 4.4 04:02:04 10° NNE 04:07:08 40° E 04:12:06 10° SSE
Cosmos 1943 Rocket 4.1 04:05:53 10° WNW 04:06:33 11° W 04:06:33 11° W
Cosmos 1953 2.9 04:06:31 10° NNW 04:10:10 35° W 04:12:00 23° SW
Cosmos 389 Rocket 2.4 04:08:05 10° NNW 04:11:45 80° W 04:15:21 10° S
NOSS 2-2 (C) 3.5 04:09:36 22° SSW 04:12:14 83° SE 04:16:58 10° NE
Cosmos 1842 Rocket 4.5 04:10:09 10° N 04:14:27 51° ENE 04:18:45 10° SSE
Meteor 1-16 Rocket 4.4 04:11:30 10° N 04:16:57 71° ENE 04:22:14 10° SSE
Cosmos 1624 Rocket 4.5 04:12:42 10° NW 04:17:30 38° WSW 04:22:18 10° S
Cosmos 1758 Rocket 4.1 04:15:53 20° SW 04:18:25 39° WNW 04:22:32 10° N
Cosmos 1707 2.7 04:15:03 12° S 04:18:43 87° WNW 04:22:36 10° N
Cosmos 1470 2.8 04:15:30 10° NNW 04:19:18 53° W 04:23:06 10° S
Landsat 4 3.9 04:19:13 10° S 04:22:49 47° W 04:26:27 10° NNW
Cosmos 1727 Rocket 4.0 04:17:25 10° SSW 04:23:36 73° W 04:29:47 10° N
Cosmos-2242 3.2 04:20:58 10° NNW 04:25:16 53° W 04:29:32 10° S
PSLV R/B 4.3 04:22:40 10° NNE 04:27:00 56° E 04:31:15 10° S
USA 161 3.0 04:27:46 19° WSW 04:28:10 20° W 04:30:26 10° NW
UNKNOWN OBJECT B 4.1 04:25:58 10° NNW 04:29:16 26° WNW 04:31:33 16° WSW
Cosmos 1153 Rocket 4.4 04:24:12 10° NNW 04:30:18 67° W 04:36:21 10° S
Cosmos 2056 Rocket 4.2 04:25:45 10° NW 04:30:27 32° W 04:35:05 10° SSW
DNEPR-1 R/B 3.4 04:30:35 10° NW 04:34:48 75° WSW 04:39:14 10° SSE
Cosmos 921 Rocket 4.0 04:32:17 10° NW 04:36:08 28° W 04:40:00 10° SSW
SL-16 R/B 4.0 04:34:30 13° WSW 04:36:45 15° W 04:40:16 10° NW
Meteor 1-24 Rocket 4.2 04:33:17 10° S 04:38:38 65° E 04:44:13 10° NNE
Cosmos 2221 3.9 04:40:29 10° N 04:44:36 43° ENE 04:48:40 10° SSE
Cosmos 1802 Rocket 4.3 04:38:32 10° N 04:45:01 81° E 04:51:26 10° S
MOS 1 Rocket 4.0 04:41:16 10° N 04:45:06 33° WNW 04:49:02 10° SW
PSLV R/B 4.1 04:41:45 10° N 04:45:44 54° WNW 04:49:46 10° SSW
CZ-4B R/B 3.1 04:42:37 10° N 04:46:50 68° WNW 04:51:13 10° SSW
EXPRESS MD2 2.9 04:44:49 10° WNW 04:49:42 84° SSW 04:52:23 10° ESE
Cosmos 1378 3.4 04:49:48 10° SSW 04:53:26 48° WNW 04:57:06 10° N
MTI 3.7 04:51:08 10° S 04:54:22 66° WSW 04:57:36 10° NNW
IRS-1C Rocket 4.1 04:49:28 10° NNE 04:54:45 78° WNW 05:00:00 10° SSW
Lacrosse 5 rocket 1.8 04:50:27 10° WSW 04:55:06 68° NW 04:59:45 10° NE
Okean 3 Rocket 4.4 04:52:44 10° S 04:57:00 54° E 05:01:20 10° NNE
CZ-4B DEB 4.2 04:55:52 10° N 05:01:21 72° WNW 05:06:48 10° SSW
Cosmos 1459 Rocket 4.0 04:55:32 10° NNW 05:01:36 66° W 05:07:45 10° S
Okean O Rocket 2.0 05:00:46 10° N 05:05:01 45° WNW 05:09:14 10° SW
ADEOS II 2.3 05:00:24 10° N 05:05:33 56° WNW 05:10:40 10° SSW
Cosmos 1452 Rocket 4.0 05:00:57 10° NW 05:05:46 37° WSW 05:10:34 10° SSW
IRAS Rocket 4.4 05:01:49 10° NNE 05:07:30 89° ESE 05:13:09 10° SSW
